Regional Weather Roundup
Issued by NWS

Home | Current Version | Previous Version | Text Only | Print | Product List | Glossary On
Versions: 1 2 3 4 5 6 7 8 9 10 11 12 13 14 15 16 17 18 19 20 21 22 23 24 25 26 27 28 29 30 31 32 33 34 35 36 37 38 39 40 41 42 43 44 45 46 47 48 49 50
000
ASUS46 KLOX 181612
RWRCA

SOUTHERN CALIFORNIA WEATHER ROUNDUP
NATIONAL WEATHER SERVICE OXNARD CALIFORNIA
800 AM PST THU DEC 18 2014

NOTE: "FAIR" INDICATES FEW OR NO CLOUDS BELOW 12,000 FEET WITH NO
SIGNIFICANT WEATHER AND/OR OBSTRUCTIONS TO VISIBILITY.

  -  STATIONS PRECEEDED BY AN ASTERISK (*) ARE NOT NWS OR FAA
     STATIONS AND ARE NOT SUBJECT TO NWS AND FAA QUALITY CONTROL.

CAZ041-042-087-181700-
LA AND ORANGE COUNTY COASTAL AREAS


CITY           SKY/WX    TMP DP  RH WIND       PRES   REMARKS
L.A. DOWNTOWN  CLOUDY    53  44  71 CALM      30.17R
L.A. AIRPORT   PTSUNNY   54  45  71 E6        30.17R
LONG BEACH     PTSUNNY   52  46  80 CALM      30.17R

CITY           SKY/WX    TMP DP  RH WIND       PRES   REMARKS
AVALON           N/A     54 N/A N/A MISG        N/A
FULLERTON      MOSUNNY   53  46  77 E5        30.16R
HAWTHORNE      CLOUDY    56  44  64 VRB3      30.18R
*LEO CARRILLO    N/A     54  43  67 N7          N/A
*LOS ALAMITOS  MOSUNNY   51  48  88 NW3       30.17R
*REDONDO BEACH   N/A     49  46  89 CALM      30.16R
SANTA ANA      MOSUNNY   57  47  69 CALM      30.16R
STA MONICA APT CLOUDY    53  46  77 CALM      30.17R
*STA MON PIER    N/A     55  48  77 N2        30.17S
TORRANCE       PTSUNNY   50  48  93 VRB6      30.16S
*UCLA            N/A     54  43  66 N3        30.15R

$$

CAZ547-548-048-181700-
LA COUNTY VALLEYS AND INLAND EMPIRE


CITY           SKY/WX    TMP DP  RH WIND       PRES   REMARKS
BURBANK        CLOUDY    50  42  74 NE5       30.16R
VAN NUYS       PTSUNNY   48  42  80 CALM      30.17R

CITY           SKY/WX    TMP DP  RH WIND       PRES   REMARKS
CORONA AIRPORT SUNNY     44  44 100 CALM      30.19R
*CHATSWORTH      N/A     48  44  84 CALM      30.18R
CHINO          MOSUNNY   47  46  97 CALM      30.19R
*CLAREMONT       N/A     48  40  75 NE2         N/A
MARCH AFB      MOSUNNY   43  43 100 CALM      30.18R
*NORTHRIDGE      N/A     46  43  87 CALM        N/A
ONTARIO        MOSUNNY   50  42  74 E5        30.17R
*PASADENA        N/A     50  45  81 CALM        N/A
RIVERSIDE      MOSUNNY   48  42  80 NE5       30.17R
SAN BERNARDINO MOSUNNY   45  37  76 CALM      30.18R
*SAN GABRIEL     N/A     51  46  83 CALM      30.16R
*SAN RAFAEL HI   N/A     52  43  72 SW6         N/A
*SAUGUS          N/A     42  40  93 CALM        N/A
*WHITEMAN AP   CLOUDY    50  39  66 CALM      30.19
*WHITTIER HILL   N/A     50  46  85 E10         N/A
*WOODLAND HILL   N/A     46  45  93 NW1         N/A

$$

CAZ054-055-181700-
LA AND SAN BERNARDINO COUNTY MOUNTAINS


CITY           SKY/WX    TMP DP  RH WIND       PRES   REMARKS
*ACTON           N/A     34  33  98 N5          N/A  WCI  30
*BIG BEAR AIRP SUNNY     21  19  93 CALM      30.14R
*BIG PINES       N/A     31  27  86 CALM        N/A
MT WILSON NWS    N/A     37  34  87 MISG        N/A
SANDBERG       LGT RAIN  40  32  73 SW6       30.15R

$$

CAZ028-029-059-060-099-181700-
ANTELOPE VALLEY AND SURROUNDING AREAS


CITY           SKY/WX    TMP DP  RH WIND       PRES   REMARKS
LANCASTER      SUNNY     37  34  89 NE5       30.17R WCI  33
PALMDALE       SUNNY     38  33  82 N7        30.16R WCI  33
*POPPY PARK      N/A     45  33  63 NW7         N/A

CITY           SKY/WX    TMP DP  RH WIND       PRES   REMARKS
29 PALMS       MOSUNNY   39  35  86 N3        30.24R
BARSTOW/DAGGET SUNNY     39  34  82 NW6       30.17R WCI  35
BISHOP         CLEAR     31  28  89 NW6       30.16R WCI  25
CHINA LAKE     CLOUDY    39  37  92 CALM      30.17R
EDWARDS AFB    MOSUNNY   37  35  93 N5        30.16R WCI  33
MOJAVE         FAIR      39  32  75 N6        30.16S WCI  35
NEEDLES        SUNNY     49  45  86 W6        30.16R
VICTORVILLE      N/A     37  34  87 S5        30.16R WCI  34

$$

CAZ039-040-181700-
VENTURA AND SANTA BARBARA COUNTY COAST


CITY           SKY/WX    TMP DP  RH WIND       PRES   REMARKS
CAMARILLO      CLOUDY    53  44  71 CALM      30.17R
NWS OXNARD       N/A     49  44  81 CALM      30.17R
OXNARD AIRPORT CLOUDY    52  42  69 NE10      30.16R
*POINT MUGU    CLOUDY    53  46  77 N7        30.17R
SBA APT/GOLETA LGT RAIN  55  49  80 NE7       30.15R
*SANTA BARBARA   N/A     55  46  74 S1        30.24R
*VENTURA         N/A     51  42  70 N12       30.20S

$$

CAZ044-045-181700-
VENTURA COUNTY VALLEYS


CITY           SKY/WX    TMP DP  RH WIND       PRES   REMARKS
*SIMI VALLEY     N/A     49  45  85 CALM      30.18R
*OJAI            N/A     45  44  94 NW1       30.16S
*FILLMORE        N/A     43  40  91 CALM      30.10R

$$

CAZ053-181700-
VENTURA COUNTY MOUNTAINS


CITY           SKY/WX    TMP DP  RH WIND       PRES   REMARKS
*LOCKWOOD VLY    N/A     32  32 100 CALM        N/A
*ROSE VALLEY     N/A     36  36 100 MISG        N/A

$$

CAZ034-035-036-181700-
CENTRAL COAST AND SANTA YNEZ VALLEY


CITY           SKY/WX    TMP DP  RH WIND       PRES   REMARKS
SAN LUIS OBISP CLOUDY    50  48  93 E7        30.15R
SANTA MARIA    CLOUDY    55  47  74 E5        30.14R

CITY           SKY/WX    TMP DP  RH WIND       PRES   REMARKS
*CAL POLY SLO    N/A     50  50 100 CALM        N/A
*LOMPOC        CLOUDY    52  43  71 E7        30.15R
*PISMO BEACH     N/A     52  49  87 N3        30.16R
*SANTA YNEZ    CLOUDY    50  43  76 E6        30.15R

$$

CAZ037-038-051-181700-
SAN LUIS OBISPO COUNTY INTERIOR AND CUYAMA VALLEY


CITY           SKY/WX    TMP DP  RH WIND       PRES   REMARKS
*CUYAMA          N/A     43  40  89 CALM      30.14S
PASO ROBLES    CLOUDY    50  44  80 E5        30.16R

$$

CAZ032-033-061-181700-
SOUTHERN DESERTS


CITY           SKY/WX    TMP DP  RH WIND       PRES   REMARKS
BLYTHE         MOSUNNY   52  49  89 N7        30.15R
IMPERIAL       SUNNY     49  44  83 SW5       30.15R
PALM SPRINGS   MOSUNNY   52  42  69 CALM      30.17R
THERMAL        SUNNY     48  45  89 CALM      30.14R FOG

$$

ELSEWHERE ACROSS THE WESTERN UNITED STATES AND MEXICO


CITY           SKY/WX    TMP DP  RH WIND       PRES   REMARKS
DENVER, CO     PTSUNNY   28  27  96 S6        30.04R FOG     WCI  22
GRAND CANYON,  CLOUDY    30  29  96 CALM      30.14R
HONOLULU, HI   PTCLDY    73  66  78 NE9       30.14R
KAHULUI, MAUI  PTCLDY    72  64  78 NE14      30.14R
LAKE TAHOE, CA CLEAR     28  22  78 S3        30.10R
LAS VEGAS, NV  PTSUNNY   48  41  76 S8        30.13R
MAMMOTH LAKES, CLEAR     14  10  85 NW3       30.12
MEXICO CITY, M SUNNY     59  45  58 E5        30.39R
PHOENIX, AZ    PTSUNNY   53  48  83 W5        30.12R
PORTLAND, OR   CLOUDY    43  39  86 SE10      29.97R
RENO, NV       MOCLDY    30  27  88 SE3       30.13R
SALT LAKE CITY PTSUNNY   35  31  85 S3        30.14R
SAN DIEGO, CA  PTSUNNY   56  45  66 CALM      30.20R
SAN FRANCISCO, CLOUDY    53  50  89 S5        30.13R
SAN JOSE, CA   MOCLDY    51  47  86 SE12      30.13R
SEATTLE, WA    CLOUDY    45  42  89 SE3       29.94R
TIJUANA, MEX   PTSUNNY   52  43  71 SE3       30.21R

$$

STATION/POSITION TIME  TEMP    WIND        PRES    VSBY  WAVE
                       AIR SEA DIR/SP/G                  HT/PER
                 (UTC) (F)     (DEG/KT/KT) (MB)    (MI)  (FT/S)
POINT ARGUELLO B NOT AVBL
WEST SANTA BARBA 1600   56 61   80/ 14/ 17 1019.7R         7/15
POINT CONCEPTION NOT AVBL
EAST SANTA BARBA NOT AVBL
SANTA MONICA BAY 1600   60 63  250/  6/ 10 1021.4R         5/11


USA.gov is the U.S. government's official web portal to all federal, state and local government web resources and services.